Lapse_Rate
6.2 6.2 6.3 6.3 6.4 6.5 6.5 6.6 6.7 6.8 6.8 6.8 6.9 6.9 6.8 6.8 6.9 6.9 6.9 7.0 7.0 7.0 7.0 6.9 6.8 6.9 6.9 6.9 6.6 6.4 6.7 7.3 7.5 7.7 7.8 7.8 7.8 7.7 7.7 7.7 7.6 7.4 7.5 7.5 7.4
6.2 6.2 6.3 6.4 6.5 6.5 6.5 6.6 6.7 6.8 6.8 6.9 7.0 6.9 6.9 6.8 6.8 6.7 6.7 6.8 6.9 6.9 7.1 7.0 6.9 6.8 6.7 6.7 6.3 6.1 6.8 7.4 7.6 7.6 7.6 7.5 7.6 7.4 7.6 7.8 7.9 7.4 7.2 7.0 7.0
6.3 6.3 6.4 6.4 6.4 6.5 6.6 6.7 6.7 6.8 6.9 6.9 7.0 7.0 6.9 6.8 6.7 6.7 6.7 6.7 6.7 6.8 6.9 7.0 6.7 6.6 6.5 6.3 6.3 6.3 7.1 7.1 7.3 7.3 7.2 7.1 7.3 7.6 7.4 7.5 7.4 7.4 7.5 7.4 7.3
6.5 6.5 6.5 6.5 6.6 6.6 6.6 6.7 6.8 6.8 6.9 7.0 7.1 7.2 7.0 6.8 6.7 6.6 6.7 6.7 6.7 6.6 6.6 6.3 6.2 6.2 6.2 6.2 6.1 6.2 6.8 6.8 7.3 7.0 6.9 7.0 7.0 7.3 7.6 7.1 7.2 7.4 7.4 7.4 7.3
6.6 6.6 6.7 6.7 6.7 6.8 6.7 6.8 6.8 6.8 6.9 7.0 7.0 7.1 7.1 6.9 6.8 6.8 6.7 6.8 6.6 6.6 6.3 5.9 5.9 5.8 6.0 6.1 6.0 6.0 6.7 6.5 6.7 6.8 7.0 7.0 7.0 7.2 7.3 7.5 7.3 7.2 7.2 7.1 7.0
6.6 6.7 6.8 6.8 6.8 6.9 6.9 6.8 6.8 6.8 6.8 6.9 6.9 7.0 7.1 7.0 7.0 6.9 6.8 7.0 6.9 6.5 6.2 5.9 5.8 5.8 6.0 6.1 5.9 6.1 6.5 6.6 6.8 7.0 7.2 6.9 7.1 7.1 7.7 7.8 7.7 7.4 7.2 6.9 6.8
6.6 6.6 6.7 6.8 6.9 6.9 6.9 6.8 6.8 6.8 6.7 6.7 6.7 6.9 6.9 6.7 7.2 7.0 6.9 6.9 6.9 6.3 6.3 6.1 6.1 6.0 6.0 6.3 5.9 6.0 6.3 6.6 6.9 7.1 7.2 7.3 7.2 7.3 8.1 8.5 7.9 7.5 7.2 7.0 6.8
6.6 6.6 6.7 6.8 6.9 6.9 6.8 6.6 6.5 6.6 6.5 6.5 6.6 6.6 6.6 7.1 6.8 6.6 6.5 6.9 6.8 6.6 6.3 6.1 6.1 6.2 6.2 6.5 6.3 6.4 6.4 6.9 8.0 7.4 7.3 7.0 6.8 7.9 7.7 7.5 8.0 7.9 7.2 6.9 7.0
6.6 6.6 6.7 6.7 6.7 6.8 6.7 6.6 6.5 6.4 6.4 6.5 6.6 6.5 6.4 6.8 6.4 6.1 6.2 6.4 6.0 6.0 6.1 6.1 6.2 6.1 6.2 6.2 6.6 6.6 6.8 7.1 7.5 7.5 7.1 6.9 6.8 7.9 8.0 7.6 7.5 7.9 8.0 7.9 7.5
6.6 6.5 6.6 6.6 6.5 6.6 6.6 6.6 6.4 6.2 6.2 6.3 6.4 6.4 6.3 6.0 6.1 6.0 5.8 5.7 5.8 5.8 5.9 6.0 6.0 6.2 6.4 6.5 6.9 7.1 7.1 7.0 6.9 7.3 7.2 7.3 7.1 8.2 8.4 7.8 7.6 7.8 8.0 8.0 8.0
6.5 6.4 6.4 6.4 6.4 6.4 6.5 6.3 6.1 6.1 6.5 6.2 6.2 6.6 6.2 5.8 5.9 6.0 5.9 5.8 5.8 6.0 6.1 6.2 6.1 6.8 6.8 6.5 6.6 6.7 6.9 7.0 7.3 7.5 7.4 7.5 7.4 7.8 8.4 8.3 7.8 7.6 8.1 8.1 8.4
6.3 6.3 6.2 6.3 6.2 6.2 6.2 6.1 6.0 5.8 6.8 6.7 6.5 7.0 6.3 5.6 5.9 6.0 5.9 5.9 5.9 6.3 6.3 6.3 6.7 7.2 7.0 7.0 7.0 7.0 7.0 7.2 7.4 7.7 7.8 7.8 7.7 7.7 7.8 8.0 8.1 7.9 8.2 8.1 8.3
6.1 6.2 6.1 6.0 6.0 6.0 6.0 5.9 5.7 5.5 5.5 7.3 6.8 7.0 7.0 6.1 6.2 6.5 6.2 6.2 6.2 6.4 6.5 6.4 7.7 6.9 7.0 6.9 7.1 7.5 7.4 7.4 7.5 7.8 7.7 7.5 7.4 7.5 7.8 7.9 8.1 8.3 8.4 8.3 8.1
6.0 6.2 6.1 5.8 6.0 6.0 6.0 5.8 5.7 5.8 5.4 6.4 6.4 6.5 6.9 6.9 6.9 6.8 6.5 6.5 6.4 6.6 6.9 6.5 7.4 7.1 7.1 7.2 7.4 7.5 7.8 7.5 7.8 7.7 7.6 7.7 6.6 7.6 7.7 8.2 8.4 8.3 7.9 7.9 7.9
5.8 6.1 5.9 6.0 5.7 5.9 5.9 5.7 5.7 5.7 4.7 6.4 6.4 6.5 6.7 7.0 6.9 6.9 6.9 6.9 6.9 7.0 7.0 6.9 7.5 7.5 7.4 7.6 7.7 7.6 7.9 7.8 7.7 7.8 7.8 7.7 7.6 7.6 7.9 8.1 8.0 8.0 7.9 8.0 7.9
5.9 6.0 6.0 5.8 5.7 5.7 5.9 5.8 5.7 5.7 5.4 6.6 6.6 6.9 7.0 7.3 7.4 7.4 7.6 7.4 7.2 7.2 7.2 7.4 7.7 7.6 7.8 8.1 8.1 8.2 8.1 8.0 8.0 7.9 6.7 7.7 7.7 7.4 7.8 7.7 7.6 7.7 7.8 8.0 8.0
5.9 6.1 6.1 5.8 5.7 5.8 5.9 5.7 5.6 5.6 6.7 6.6 6.7 6.9 7.1 7.3 7.5 7.6 7.6 7.7 7.5 7.6 7.7 7.9 8.1 8.2 8.0 8.2 8.5 8.5 8.6 7.9 7.1 6.7 6.0 7.6 7.5 7.8 7.2 7.3 7.5 7.5 7.6 7.7 7.8
5.8 6.1 6.1 5.7 5.6 5.9 6.0 5.9 5.4 6.1 6.5 6.8 6.8 7.2 7.5 7.7 7.8 8.0 8.1 8.0 7.8 7.8 7.9 7.8 8.0 8.2 7.8 8.1 8.1 8.1 8.3 8.1 6.7 6.0 6.2 7.9 7.6 7.5 7.1 7.2 7.6 7.5 7.6 8.0 8.1
5.8 5.8 5.9 5.9 6.0 6.1 6.2 5.9 6.1 6.1 6.5 6.8 7.4 7.7 7.8 8.1 8.2 8.1 8.1 7.9 7.7 7.7 7.9 7.8 8.0 8.1 7.5 7.6 8.1 7.9 7.9 7.7 7.7 7.5 6.7 7.6 7.7 7.4 7.0 6.9 7.5 7.7 7.6 7.6 7.8
5.6 5.6 5.8 6.1 6.3 6.4 6.6 6.5 6.4 6.4 6.7 6.7 7.2 7.6 7.9 8.1 8.0 8.2 7.7 7.1 7.3 7.7 7.7 7.5 7.7 8.1 7.6 7.5 7.8 8.1 7.9 7.8 7.6 7.0 6.5 7.0 8.0 8.2 7.7 7.5 7.7 7.7 7.5 7.5 7.4
5.9 6.0 6.3 6.6 6.6 6.6 6.7 6.5 6.5 6.6 6.7 6.9 7.1 7.2 7.3 7.5 7.7 7.4 6.7 6.6 6.7 7.0 7.4 7.3 7.5 7.9 8.3 7.9 7.7 7.7 7.7 7.7 7.6 7.6 5.8 5.8 6.9 6.7 6.8 6.6 6.7 7.2 7.0 7.0 7.1
6.1 6.2 6.6 6.8 6.6 6.9 6.8 6.7 6.8 6.9 7.1 7.3 7.3 7.3 7.1 7.0 7.1 7.2 7.0 6.7 6.5 6.5 6.7 6.8 6.8 7.1 7.7 7.7 7.6 7.4 7.0 7.0 6.9 6.7 6.5 6.3 6.1 6.6 6.7 6.3 6.1 6.1 6.3 6.5 6.7
6.5 6.4 6.4 6.7 6.7 7.0 7.1 7.0 7.2 7.2 7.2 7.1 7.1 7.0 7.2 7.2 7.2 7.0 6.7 6.5 6.4 6.5 6.5 6.4 6.2 6.6 6.8 6.9 7.0 7.0 6.7 6.4 6.0 6.1 6.1 5.6 6.0 6.5 6.3 6.1 6.1 6.2 6.3 6.4 6.7
6.3 6.6 6.3 6.4 6.6 6.8 7.1 7.2 7.3 7.1 7.0 7.3 7.4 7.4 7.2 7.1 7.0 7.2 7.1 6.8 6.6 6.4 6.3 6.2 6.0 6.1 6.2 6.5 6.6 6.6 6.7 6.6 6.0 5.6 5.7 5.8 5.8 6.0 5.9 6.1 6.1 6.1 5.9 5.9 6.0
6.2 6.4 6.7 6.7 6.3 6.5 6.9 6.9 7.5 7.4 7.1 7.5 7.9 7.7 7.8 7.4 7.1 6.8 6.7 6.7 6.7 6.5 6.2 5.9 5.7 5.7 5.8 5.9 6.0 5.8 5.9 6.2 6.0 6.2 5.7 5.7 5.6 5.6 5.4 5.4 5.4 5.5 5.6 5.7 6.0
6.2 6.3 6.6 6.9 6.9 6.7 6.5 6.6 6.9 7.0 6.9 6.9 7.4 7.5 7.3 7.6 7.3 7.0 6.7 6.6 6.5 6.5 6.4 6.0 5.7 5.6 5.5 6.0 5.7 5.7 6.0 6.2 6.2 6.2 6.0 6.0 5.9 5.8 5.7 5.8 5.7 5.4 5.2 5.3 5.5
6.2 6.3 6.5 6.5 6.5 6.5 6.6 6.6 6.8 7.1 6.9 6.9 6.9 7.1 7.1 7.0 6.9 6.8 6.6 6.5 6.4 6.4 6.4 6.0 5.9 5.6 5.6 5.9 5.7 5.8 6.4 6.3 6.2 6.1 6.1 6.1 6.1 6.1 6.1 6.1 6.2 5.9 5.6 5.4 5.5
Wind_Speed
23 22 22 21 20 20 19 18 16 14 13 13 12 12 12 13 14 1 4 9 4 6 4 1 2 1 2 1 3 4 4 1 4 3 6 4 9 6 2 7 3 6 5 4 9
24 24 23 22 21 19 19 18 17 15 13 12 12 13 13 12 2 6 10 10 9 13 3 4 2 2 2 1 1 4 4 8 6 3 4 8 2 4 3 1 3 2 4 7 8
25 25 25 24 23 20 19 18 17 15 13 12 11 12 12 9 4 6 2 16 16 13 0 1 2 2 2 1 2 3 5 5 7 8 5 4 6 1 5 4 4 9 7 10 5
27 27 27 26 25 23 20 18 17 15 13 11 11 11 14 1 1 3 2 18 16 8 2 3 4 2 1 3 3 2 7 6 8 6 5 5 3 2 8 5 6 9 17 12 8
28 28 28 27 26 24 21 19 17 14 13 11 10 9 2 3 8 3 11 14 8 6 5 4 3 2 3 2 2 4 6 4 10 11 8 5 8 5 3 3 3 8 9 14 9
28 27 28 28 27 25 23 20 16 13 11 9 7 7 1 3 4 3 9 6 6 6 5 7 6 7 3 2 1 2 4 7 5 5 5 8 5 3 5 7 9 12 14 13 13
29 28 28 28 27 26 24 22 17 13 8 6 5 2 1 13 3 1 8 6 6 5 5 5 4 3 3 6 1 4 5 7 3 1 2 8 3 6 8 0 9 13 15 14 15
31 30 29 29 27 26 25 21 18 11 6 5 4 1 6 4 5 5 4 4 5 5 4 4 4 3 3 2 7 5 4 4 5 1 2 3 7 10 9 5 8 9 9 10 11
33 32 31 30 29 28 25 24 13 3 2 8 3 3 8 5 3 5 5 6 2 2 6 6 1 2 5 4 5 5 3 4 9 4 2 3 7 13 8 10 9 8 8 10 10
34 34 33 32 31 28 27 11 8 6 2 3 2 2 4 3 4 6 5 5 3 4 3 4 5 2 3 4 4 4 3 2 4 5 3 4 8 11 3 8 11 8 7 8 10
35 36 36 35 32 29 10 2 4 3 1 6 7 6 7 3 3 4 5 6 2 2 4 2 2 7 9 7 6 3 3 5 8 8 1 5 5 9 6 2 4 7 8 9 12
36 37 37 36 32 24 1 4 1 1 9 13 18 13 17 4 4 8 9 7 6 7 3 3 7 9 4 3 6 6 5 10 9 11 6 4 5 5 4 3 3 6 8 9 8
36 36 38 38 36 2 2 3 5 0 3 8 6 7 7 10 9 13 10 5 5 7 6 7 12 4 3 5 7 7 6 6 10 2 3 2 6 4 4 3 6 3 5 5 9
40 38 34 40 2 5 4 7 10 1 4 7 4 6 6 8 5 10 9 7 3 11 7 5 6 8 5 7 2 3 7 6 3 3 4 3 4 5 3 7 4 10 13 10 11
41 38 34 15 2 2 5 12 8 4 4 3 3 2 6 7 3 5 6 5 10 7 7 9 4 5 4 7 4 9 5 3 4 3 3 4 2 6 3 7 9 11 11 11 10
44 41 32 2 1 6 15 8 4 5 6 4 4 2 5 3 2 2 4 4 5 5 1 10 3 5 7 3 5 5 1 6 4 4 1 4 2 3 3 1 3 9 11 12 13
45 43 17 2 2 8 7 4 4 4 5 5 4 6 1 5 6 6 4 5 6 4 4 5 6 2 2 4 5 6 5 3 4 4 4 3 3 5 4 4 5 6 11 11 12
48 34 3 5 8 7 4 5 1 2 3 4 5 8 4 6 4 8 4 3 8 4 3 4 5 5 5 4 3 3 4 5 5 3 4 4 4 4 1 1 3 5 7 9 14
35 5 4 4 3 2 5 3 5 3 5 7 8 4 5 5 3 3 4 3 5 6 2 1 2 3 7 4 3 2 3 2 3 2 3 3 1 3 5 13 14 14 14 17 15
5 5 4 12 2 5 4 4 3 3 5 4 4 7 5 6 5 6 4 6 3 7 1 1 2 2 2 2 9 5 1 2 3 2 4 4 4 2 8 9 13 16 15 13 15
3 4 3 19 3 5 3 4 1 3 3 5 4 5 5 6 5 6 10 5 8 5 8 6 2 5 1 4 3 3 2 4 3 4 5 2 5 5 3 2 6 9 12 14 15
4 3 5 7 4 2 1 3 5 3 5 5 4 3 2 3 4 4 4 5 8 3 4 5 2 2 3 7 3 2 4 5 4 2 2 2 5 4 5 4 5 6 6 9 12
3 3 4 4 3 3 6 3 2 4 3 2 2 2 2 1 1 3 5 4 8 5 2 1 2 2 6 5 4 6 3 4 3 3 5 4 5 4 5 5 6 7 8 7 11
3 4 4 4 2 3 5 3 4 4 3 1 3 4 4 4 4 2 4 2 4 2 10 3 3 6 6 5 1 4 5 1 4 3 3 5 10 9 8 9 9 9 8 8 8
3 1 1 4 4 4 3 5 4 1 1 3 3 2 3 2 3 2 1 4 3 4 4 4 3 3 4 5 2 4 6 6 6 7 6 4 7 7 3 4 5 5 7 8 6
2 3 4 4 4 5 5 5 8 10 1 1 4 4 3 5 5 4 3 3 5 2 3 2 2 2 4 7 6 6 8 9 9 7 7 7 6 2 4 4 4 7 6 8 8
2 2 3 4 5 3 2 5 4 7 4 5 2 3 3 4 8 7 7 5 7 6 5 3 5 3 3 2 2 5 5 4 3 2 2 4 4 4 4 7 6 6 6 8 7
Wind_Direction
1 357 354 351 347 344 340 335 332 328 321 315 313 310 312 318 313 133 246 217 172 162 133 114 132 193 96 317 151 128 60 184 244 199 273 329 21 307 85 133 209 195 180 208 106
358 354 352 350 347 342 339 335 331 326 319 315 312 310 315 326 270 233 239 207 199 152 153 184 131 39 17 280 128 101 124 216 215 225 268 317 25 278 83 249 340 39 352 139 125
355 352 349 347 345 341 337 333 329 324 318 313 309 307 312 321 325 252 220 190 168 163 10 113 80 57 10 289 194 152 192 218 256 242 275 269 310 209 101 340 224 172 200 173 188
353 350 347 344 341 338 335 331 327 323 316 309 305 309 313 266 191 258 354 171 152 136 109 97 53 60 229 221 217 191 233 193 270 230 213 236 235 312 138 220 265 211 184 171 186
348 346 344 341 337 333 330 327 324 319 311 304 303 313 315 14 253 280 108 132 114 120 173 151 143 192 249 238 194 204 260 268 263 280 218 265 245 190 261 190 103 124 179 195 191
345 343 341 338 334 330 326 321 318 314 306 293 290 308 89 287 248 208 136 133 151 165 177 162 202 197 278 298 164 250 245 271 287 284 230 165 247 133 250 145 129 153 191 205 201
342 341 339 336 332 328 322 321 316 306 290 273 269 262 157 238 326 217 161 187 175 181 196 204 195 178 163 314 226 278 313 340 269 231 217 174 198 203 235 157 150 181 197 212 212
341 339 338 336 329 326 324 319 312 299 264 213 190 227 250 247 296 164 153 297 229 231 246 254 194 207 165 281 2 1 48 3 279 22 295 113 272 255 240 236 251 183 191 204 216
340 338 337 334 330 328 325 319 307 264 138 157 134 156 266 317 223 217 155 219 90 243 258 276 275 100 36 79 359 1 247 281 319 200 219 195 280 273 159 182 224 252 195 219 219
338 336 335 334 332 327 324 317 111 124 156 202 268 17 269 232 196 191 213 218 252 350 327 160 47 76 45 77 218 249 279 305 256 289 140 285 266 281 255 181 216 241 259 219 224
338 336 334 333 331 329 333 117 17 10 211 217 217 226 273 229 249 187 171 119 97 75 198 13 83 234 233 198 212 270 263 271 279 271 158 229 257 297 300 115 305 278 270 247 212
337 336 334 331 330 329 224 63 247 266 294 227 244 242 246 75 315 288 122 153 143 214 180 22 243 232 250 226 223 240 241 271 277 266 177 303 307 306 7 323 257 263 252 264 293
336 336 334 330 324 356 307 231 327 240 272 293 220 229 210 155 223 260 163 170 169 186 179 181 241 57 212 287 268 245 196 234 224 343 331 17 340 351 328 1 315 285 250 270 258
335 336 337 329 23 325 296 319 335 181 23 278 252 256 144 138 226 207 185 147 198 195 182 214 274 250 265 260 223 276 225 246 247 106 243 51 273 295 313 312 347 358 22 359 348
334 335 335 329 274 342 321 325 314 58 333 255 240 147 156 164 191 222 176 119 183 189 123 238 238 254 204 229 208 241 311 254 230 174 91 341 70 266 265 13 14 16 4 354 343
334 330 334 127 290 255 307 307 49 46 253 316 335 300 158 206 270 99 154 90 167 188 168 230 212 179 220 244 209 253 307 37 48 95 18 232 134 303 36 311 8 7 358 357 355
334 326 324 232 235 326 324 36 48 163 323 342 342 344 357 356 16 4 156 167 182 145 237 296 250 287 89 57 0 57 58 339 330 356 219 280 18 249 69 35 51 351 346 344 356
332 324 254 237 280 329 50 51 216 276 310 348 339 316 79 18 34 353 39 55 27 13 143 163 299 18 336 138 174 49 137 156 224 197 237 332 245 191 221 342 342 359 348 358 2
330 333 299 311 294 75 65 81 216 315 333 338 325 30 4 359 36 53 65 67 32 30 110 119 215 11 30 25 70 292 57 201 133 31 87 238 338 237 2 15 18 18 18 4 354
331 335 289 330 11 62 73 219 253 354 341 6 7 23 353 360 20 18 75 351 12 16 17 197 327 89 299 13 10 92 242 21 9 243 233 261 230 199 15 5 6 7 0 358 352
19 14 269 337 68 49 143 240 308 3 47 37 32 9 26 9 2 352 25 22 0 1 42 30 59 295 339 77 164 359 12 62 118 136 201 215 251 95 86 57 22 355 353 351 354
5 358 321 348 48 1 56 304 285 359 16 37 104 83 79 3 351 3 78 20 336 8 53 346 108 288 281 339 305 114 106 97 115 251 257 194 260 142 105 44 23 353 341 344 349
9 278 316 41 83 336 312 301 3 14 9 54 67 58 62 51 321 59 84 9 23 47 70 15 5 21 334 352 3 75 87 123 116 89 219 181 262 181 83 29 357 351 351 351 353
25 349 327 30 17 18 344 288 332 346 65 99 112 75 60 39 19 345 16 97 5 56 55 88 153 167 199 228 186 315 325 276 144 126 241 237 294 321 342 344 349 345 342 340 344
30 302 203 312 327 338 298 318 314 265 80 37 94 67 160 171 353 31 359 324 331 354 59 96 205 200 253 255 247 235 244 247 212 218 204 252 266 265 242 233 254 277 306 313 322
46 19 351 287 298 321 352 8 1 339 151 139 129 157 133 160 188 215 189 188 232 324 99 3 216 137 238 243 236 247 242 240 247 253 249 246 265 164 277 314 290 283 283 287 298
319 340 100 289 326 351 14 330 356 350 359 58 200 195 226 234 191 205 199 201 215 199 156 182 146 97 268 356 10 312 244 217 230 228 236 236 230 3 315 307 297 305 282 262 291